Regional Weather Roundup
Issued by NWS

Home | Current Version | Previous Version | Text Only | Print | Product List | Glossary Off
Versions: 1 2 3 4 5 6 7 8 9 10 11 12 13 14 15 16 17 18 19 20 21 22 23 24 25 26 27 28 29 30 31 32 33 34 35 36 37 38 39 40 41 42 43 44 45 46 47 48 49 50

000
ASUS43 KDTX 231610
RWRMI
MICHIGAN HOURLY REGIONAL WEATHER ROUNDUP
NATIONAL WEATHER SERVICE DETROIT/PONTIAC MI
1200 PM EDT SUN APR 23 2017

NOTE: "FAIR" INDICATES FEW OR NO CLOUDS BELOW 12,000 FEET WITH NO
SIGNIFICANT WEATHER AND/OR OBSTRUCTION TO VISIBILITY.

MIZ047>049-052>055-059>063-066>070-074>076-081>083-231700-
SOUTHEAST LOWER MICHIGAN

CITY           SKY/WX    TMP DP  RH WIND       PRES   REMARKS
ADRIAN         SUNNY     60  37  42 E7        30.12F
ALMA           SUNNY     63  33  32 SW10G17   30.11F
ANN ARBOR      SUNNY     61  36  39 CALM      30.11F
BAD AXE        SUNNY     61  34  35 W10       30.10S
CARO           SUNNY     63  33  32 W8        30.10F
DETROIT CITY   SUNNY     61  34  36 CALM      30.11F
DETROIT        MOSUNNY   61  35  37 CALM      30.12F
FLINT          SUNNY     64  35  34 NW10      30.11F
GROSSE ILE     SUNNY     56  27  32 S5        30.12F
HILLSDALE      SUNNY     61  32  33 CALM      30.10F
HOWELL         SUNNY     62  29  28 W5        30.11F

CITY           SKY/WX    TMP DP  RH WIND       PRES   REMARKS
JACKSON        SUNNY     63  30  28 N5        30.11F
LAMBERTVILLE   SUNNY     59  29  31 NE5       30.12F
LANSING        SUNNY     64  28  25 W12       30.13R
LAPEER         FAIR      63  31  30 NW7       30.11S
MASON          SUNNY     63  36  36 CALM      30.11F
MONROE         SUNNY     60  31  33 CALM      30.12F
MT. CLEMENS    MOSUNNY   61  38  43 SE7       30.11F
PONTIAC        MOSUNNY   62  31  31 W7        30.10F
PORT HOPE        N/A     62  35  36 W9        30.07S
PORT HURON     SUNNY     61  30  31 S5        30.11F
TRI CITIES     SUNNY     62  36  37 SW9       30.10F
MIDLAND        FAIR      66  31  27 SW5       30.08F
TROY           SUNNY     62  30  30 W3        30.13S
SAGINAW HB     SUNNY     63  30  29 W9        30.09F
$$
MIZ043>046-050>051-056>058-064>065-071>073-077>080-231700-
SOUTHWEST LOWER MICHIGAN

CITY           SKY/WX    TMP DP  RH WIND       PRES   REMARKS
BATTLE CREEK   SUNNY     64  31  28 W7        30.12F
BENTON HARBOR  SUNNY     59  30  33 W6        30.13F
BIG RAPIDS     SUNNY     63  26  25 W12G17    30.09S
COLDWATER      SUNNY     60  33  35 NE3       30.11F
FREMONT        FAIR      63  25  23 SW8       30.10F
HOLLAND        SUNNY     59  30  33 W8        30.14S
GRAND RAPIDS   MOSUNNY   62  33  33 W12       30.12F
IONIA          FAIR      64  31  29 W7        30.11F
KALAMAZOO      SUNNY     64  27  24 NW6       30.12F
LUDINGTON      SUNNY     53  38  55 CALM      30.11S
MARSHALL       SUNNY     62  30  29 CALM      30.11F
MOUNT PLEASANT SUNNY     63  30  29 W7        30.08F
MUSKEGON       SUNNY     59  25  27 SW10      30.12F
SOUTH HAVEN    SUNNY     58  30  34 NW5       30.14S
$$
MIZ016>042-231700-
NORTHERN LOWER MICHIGAN

CITY           SKY/WX    TMP DP  RH WIND       PRES   REMARKS
ALPENA         MOSUNNY   53  40  61 N14       30.11R
BEAVER ISLAND  CLOUDY    39  32  75 NW13      30.18R WCI  32
BELLAIRE       SUNNY     51  37  58 N9        30.12S
CADILLAC       SUNNY     62  32  32 W8        30.07F
CHARLEVOIX     CLOUDY    41  36  80 N9        30.19R
FRANKFORT      SUNNY     50  37  62 N9G18     30.12R
GAYLORD        MOSUNNY   54  37  52 VRB7      30.08S
GRAYLING       SUNNY     60  33  37 W9G16     30.08S
HARBOR SPRINGS CLOUDY    46  35  65 NE9       30.14R
HOUGHTON LAKE  SUNNY     61  33  35 W8        30.07F
MANISTEE       SUNNY     52  39  61 W9        30.11R
OSCODA         SUNNY     69  29  22 W12G21    30.05S
PELLSTON       CLOUDY    45  34  65 NW10      30.14R
ROGERS CITY    CLOUDY    48  37  64 NW14      30.13R
TRAVERSE CITY  MOSUNNY   48  37  65 N14       30.13R
$$
MIZ007>008-015-231700-
EASTERN UPPER MICHIGAN

CITY           SKY/WX    TMP DP  RH WIND       PRES   REMARKS
KINROSS        CLOUDY    36  30  80 NW14G21   30.13R WCI  27
MACKINAC ISLAN CLOUDY    39  34  81 VRB6      30.14R WCI  35
NEWBERRY       LGT SNOW  33  32  95 N13G18    30.16R WCI  24
S. S. MARIE    CLOUDY    38  33  82 W10       30.11R WCI  31
MUNISING         N/A     33  28  81 N22       30.21R WCI  21
$$
MIZ004>006-011>014-085-231700-
CENTRAL UPPER MICHIGAN

CITY           SKY/WX    TMP DP  RH WIND       PRES   REMARKS
MANISTIQUE     CLOUDY    36  30  78 N16G23    30.17R WCI  26
ESCANABA       CLOUDY    40  30  67 N9        30.19R WCI  34
MENOMINEE      CLOUDY    43  35  73 E15       30.18R
$$
MIZ001>003-009>011-084-231700-
WESTERN UPPER MICHIGAN

CITY           SKY/WX    TMP DP  RH WIND       PRES   REMARKS
IRON MOUNTAIN  LGT SNOW  35  28  75 N10       30.17R WCI  27
HOUGHTON       CLOUDY    32  23  69 E10       30.21S WCI  24
COPPER HARBOR    N/A     33  24  69 NE15      30.22F WCI  23
IRONWOOD       CLOUDY    37  31  78 E10       30.18S WCI  30
$$

ABBREVIATIONS USED IN REMARKS
   TC - TEMPERATURE IN CELSIUS
  WCI - WIND CHILL INDEX
   HX - HEAT INDEX
  VSB - VISIBILITY





USA.gov is the U.S. government's official web portal to all federal, state and local government web resources and services.